1486191600.48,36746,9.75,72688.5,-4.61,-6.73,-6.73,0,*53
1486191601.7,36747,9.75,72688.8,-4.63,-6.77,-6.73,0,*54
1486191602.89,36748,9.75,72688.3,-4.61,-6.85,-6.69,0,*5F
1486191604.08,36749,9.75,72692.8,-4.61,-6.81,-6.69,0,*5A
1486191605.3,36750,9.75,72694.5,-4.63,-6.85,-6.73,0,*5F
1486191606.49,36751,9.75,72688.8,-4.61,-6.85,-6.73,0,*5C
1486191607.68,36752,9.75,72690.8,-4.61,-6.81,-6.69,0,*50
1486191608.89,36753,9.75,72686.5,-4.63,-6.85,-6.73,0,*5C
1486191610.09,36754,9.75,72688.3,-4.61,-6.73,-6.55,0,*54
1486191611.29,36755,9.75,72690.5,-4.61,-6.59,-6.47,0,*5E
1486191612.5,36756,9.75,72690.3,-4.63,-6.59,-6.47,0,*5F
1486191613.7,36757,9.75,72688.5,-4.61,-6.69,-6.51,0,*58
1486191614.89,36758,9.75,72688.8,-4.61,-6.73,-6.59,0,*54
1486191616.09,36759,9.75,72688.5,-4.61,-6.81,-6.69,0,*5B
1486191617.3,36760,9.75,72686.3,-4.63,-6.85,-6.73,0,*5C
1486191618.49,36761,9.75,72688.3,-4.61,-6.81,-6.73,0,*5B
1486191619.69,36762,9.75,72690.8,-4.61,-6.85,-6.73,0,*5C
1486191620.93,36763,9.75,72690.0,-4.63,-6.73,-6.63,0,*57
1486191622.14,36764,9.75,72690.3,-4.63,-6.89,-6.73,0,*54
1486191623.33,36765,9.75,72688.8,-4.61,-6.85,-6.73,0,*5B
1486191624.52,36766,9.75,72690.3,-4.61,-6.85,-6.69,0,*53
1486191625.72,36767,9.75,72688.5,-4.61,-6.81,-6.73,0,*5D
1486191626.96,36768,9.75,72690.8,-4.63,-6.97,-6.89,0,*52
1486191628.15,36769,9.75,72690.0,-4.61,-6.81,-6.69,0,*58
1486191629.34,36770,9.75,72692.8,-4.61,-6.73,-6.69,0,*5D
1486191630.53,36771,9.75,72690.3,-4.61,-6.73,-6.69,0,*5C
1486191631.74,36772,9.75,72690.0,-4.63,-6.85,-6.73,0,*5F
1486191632.96,36773,9.75,72690.0,-4.63,-6.85,-6.77,0,*5A
1486191634.17,36774,9.75,72688.0,-4.63,-6.89,-6.77,0,*51
1486191635.36,36775,9.75,72690.5,-4.61,-6.85,-6.73,0,*5A
1486191636.58,36776,9.75,72688.5,-4.63,-6.89,-6.77,0,*53
1486191637.79,36777,9.75,72688.3,-4.63,-6.85,-6.73,0,*5A
1486191639.0,36778,9.75,72694.5,-4.63,-6.85,-6.73,0,*55
1486191640.22,36779,9.75,72688.0,-4.63,-6.85,-6.73,0,*54
1486191641.43,36780,9.75,72688.0,-4.63,-6.85,-6.73,0,*52
1486191642.67,36781,9.75,72688.3,-4.63,-6.73,-6.63,0,*5B
1486191643.86,36782,9.75,72690.0,-4.61,-6.73,-6.55,0,*5F
1486191645.11,36783,9.75,72688.0,-4.63,-6.77,-6.63,0,*5D
1486191646.3,36784,9.75,72688.5,-4.61,-6.81,-6.69,0,*5B
1486191647.52,36785,9.75,72690.5,-4.63,-6.77,-6.73,0,*5A
1486191648.76,36786,9.75,72690.5,-4.63,-6.77,-6.63,0,*58
1486191649.95,36787,9.75,72688.5,-4.61,-6.73,-6.59,0,*56
1486191651.17,36788,9.75,72690.5,-4.63,-6.85,-6.73,0,*5A
1486191652.38,36789,9.75,72690.8,-4.63,-6.85,-6.73,0,*5B
1486191653.57,36790,9.75,72688.0,-4.61,-6.81,-6.69,0,*5E
1486191654.76,36791,9.75,72690.5,-4.61,-6.73,-6.69,0,*52
1486191655.98,36792,9.75,72692.3,-4.63,-6.89,-6.77,0,*59
1486191657.17,36793,9.75,72690.0,-4.61,-6.85,-6.73,0,*52
1486191658.38,36794,9.75,72690.8,-4.63,-6.85,-6.73,0,*57
1486191659.6,36795,9.75,72688.0,-4.63,-6.85,-6.73,0,*56
1486191660.81,36796,9.75,72690.0,-4.63,-6.85,-6.85,0,*5C
1486191662.02,36797,9.75,72688.8,-4.63,-6.89,-6.85,0,*51
1486191663.24,36798,9.75,72688.0,-4.63,-6.89,-6.85,0,*5E
1486191664.45,36799,9.75,72690.3,-4.63,-6.85,-6.73,0,*5A
1486191665.67,36800,9.75,72688.0,-4.65,-6.85,-6.63,0,*52
1486191666.86,36801,9.75,72686.8,-4.65,-6.85,-6.77,0,*56
1486191668.08,36802,9.75,72690.8,-4.63,-6.85,-6.77,0,*53
1486191669.32,36803,9.75,72690.0,-4.63,-6.73,-6.63,0,*5E
1486191670.54,36804,9.75,72688.8,-4.65,-6.73,-6.63,0,*5F
1486191671.73,36805,9.75,72688.3,-4.65,-6.85,-6.77,0,*52
1486191672.92,36806,9.75,72692.3,-4.65,-6.73,-6.73,0,*5C
1486191674.15,36807,9.75,72688.0,-4.65,-6.77,-6.63,0,*58
1486191675.37,36808,9.75,72688.5,-4.65,-6.73,-6.63,0,*53
1486191676.56,36809,9.75,72690.8,-4.65,-6.77,-6.77,0,*53
1486191677.76,36810,9.75,72688.0,-4.65,-6.77,-6.73,0,*5F
1486191678.96,36811,9.75,72690.8,-4.65,-6.77,-6.73,0,*5E
1486191680.15,36812,9.75,72690.5,-4.65,-6.73,-6.59,0,*51
1486191681.41,36813,9.75,72692.3,-4.63,-6.63,-6.63,0,*5E
1486191682.6,36814,9.75,72690.5,-4.61,-6.73,-6.69,0,*50
1486191683.84,36815,9.75,72690.8,-4.63,-6.73,-6.63,0,*59
1486191685.08,36816,9.75,72688.5,-4.63,-6.73,-6.63,0,*5A
1486191686.3,36817,9.75,72688.0,-4.63,-6.77,-6.59,0,*56
1486191687.52,36818,9.75,72690.5,-4.63,-6.77,-6.73,0,*51
1486191688.73,36819,9.75,72688.3,-4.63,-6.77,-6.77,0,*54
1486191689.93,36820,9.75,72690.3,-4.65,-6.85,-6.77,0,*55
1486191691.12,36821,9.75,72688.3,-4.65,-6.73,-6.73,0,*59
1486191692.34,36822,9.75,72690.0,-4.65,-6.73,-6.63,0,*5B
1486191693.54,36823,9.75,72690.0,-4.65,-6.73,-6.59,0,*53
1486191694.73,36824,9.75,72688.8,-4.65,-6.73,-6.59,0,*54
1486191695.95,36825,9.75,72694.0,-4.65,-6.63,-6.59,0,*54
1486191697.15,36826,9.75,72690.0,-4.65,-6.59,-6.47,0,*51
1486191698.36,36827,9.75,72688.3,-4.65,-6.63,-6.47,0,*59
1486191699.6,36828,9.75,72690.3,-4.67,-6.69,-6.63,0,*58
1486191700.86,36829,9.75,72688.5,-4.63,-6.63,-6.63,0,*57
1486191702.12,36830,9.75,72690.8,-4.63,-6.63,-6.63,0,*5F
1486191703.36,36831,9.75,72692.5,-4.63,-6.63,-6.59,0,*57
1486191704.6,36832,9.75,72688.5,-4.63,-6.63,-6.59,0,*54
1486191705.82,36833,9.75,72694.3,-4.65,-6.77,-6.63,0,*5F
1486191707.02,36834,9.75,72688.3,-4.65,-6.73,-6.59,0,*55
1486191708.25,36835,9.75,72690.3,-4.63,-6.73,-6.63,0,*5B
1486191709.47,36836,9.75,72690.3,-4.65,-6.73,-6.63,0,*5E
1486191710.67,36837,9.75,72686.5,-4.65,-6.73,-6.59,0,*56
1486191711.89,36838,9.75,72688.8,-4.65,-6.63,-6.59,0,*58
1486191713.1,36839,9.75,72686.8,-4.65,-6.63,-6.59,0,*59
1486191714.32,36840,9.75,72690.8,-4.63,-6.59,-6.51,0,*50
1486191715.56,36841,9.75,72688.5,-4.63,-6.63,-6.47,0,*5F
1486191716.77,36842,9.75,72688.3,-4.63,-6.59,-6.47,0,*55
1486191718.0,36843,9.75,72686.5,-4.63,-6.51,-6.47,0,*5C
1486191719.22,36844,9.75,72690.8,-4.63,-6.51,-6.47,0,*5B
1486191720.44,36845,9.75,72690.8,-4.63,-6.59,-6.51,0,*55
1486191721.67,36846,9.75,72688.5,-4.63,-6.63,-6.59,0,*57
1486191722.89,36847,9.75,72688.5,-4.63,-6.59,-6.51,0,*57
1486191724.11,36848,9.75,72690.5,-4.63,-6.59,-6.59,0,*50
1486191725.34,36849,9.75,72690.8,-4.63,-6.63,-6.59,0,*58
1486191726.56,36850,9.75,72690.3,-4.63,-6.59,-6.51,0,*51
1486191727.8,36851,9.75,72688.5,-4.63,-6.73,-6.63,0,*59
1486191729.02,36852,9.75,72686.8,-4.63,-6.59,-6.59,0,*5B
1486191730.26,36853,9.75,72688.5,-4.63,-6.63,-6.59,0,*53
1486191731.49,36854,9.75,72688.8,-4.63,-6.63,-6.59,0,*54
1486191732.71,36855,9.75,72694.0,-4.63,-6.59,-6.51,0,*54
1486191733.95,36856,9.75,72688.0,-4.63,-6.63,-6.51,0,*5E
1486191735.17,36857,9.75,72688.3,-4.63,-6.59,-6.51,0,*56
1486191736.38,36858,9.75,72688.3,-4.63,-6.59,-6.59,0,*51
1486191737.6,36859,9.75,72690.8,-4.63,-6.59,-6.51,0,*58
1486191738.84,36860,9.75,72688.0,-4.63,-6.63,-6.51,0,*5B
1486191740.06,36861,9.75,72686.5,-4.63,-6.59,-6.51,0,*53
1486191741.32,36862,9.75,72688.0,-4.63,-6.63,-6.63,0,*58
1486191742.51,36863,9.75,72688.5,-4.65,-6.77,-6.69,0,*50
1486191743.71,36864,9.75,72686.3,-4.65,-6.73,-6.59,0,*50
1486191744.93,36865,9.75,72686.0,-4.65,-6.73,-6.63,0,*58
1486191746.15,36866,9.75,72688.3,-4.65,-6.77,-6.63,0,*5F
1486191747.37,36867,9.75,72686.8,-4.65,-6.73,-6.63,0,*5A
1486191748.59,36868,9.75,72690.5,-4.65,-6.73,-6.63,0,*55
1486191749.81,36869,9.75,72690.5,-4.65,-6.63,-6.59,0,*5C
1486191751.0,36870,9.75,72684.0,-4.65,-6.73,-6.59,0,*55
1486191752.22,36871,9.75,72688.3,-4.65,-6.77,-6.63,0,*59
1486191753.42,36872,9.75,72690.0,-4.65,-6.77,-6.73,0,*5B
1486191754.61,36873,9.75,72690.5,-4.65,-6.85,-6.73,0,*57
1486191755.81,36874,9.75,72688.5,-4.65,-6.77,-6.73,0,*5D
1486191757.01,36875,9.75,72688.5,-4.65,-6.77,-6.77,0,*58
1486191758.2,36876,9.75,72690.3,-4.65,-6.89,-6.77,0,*5A
1486191759.39,36877,9.75,72686.0,-4.65,-6.85,-6.77,0,*57
1486191760.59,36878,9.75,72690.0,-4.65,-6.85,-6.77,0,*58
1486191761.82,36879,9.75,72688.0,-4.67,-6.89,-6.81,0,*5E
1486191763.04,36880,9.75,72686.3,-4.67,-6.89,-6.89,0,*50
1486191764.26,36881,9.75,72690.3,-4.67,-6.81,-6.77,0,*58
1486191765.45,36882,9.75,72688.5,-4.65,-6.73,-6.77,0,*54
1486191766.68,36883,9.75,72690.8,-4.67,-6.81,-6.81,0,*53
1486191767.88,36884,9.75,72686.8,-4.65,-6.77,-6.77,0,*56
1486191769.11,36885,9.75,72688.3,-4.67,-6.81,-6.81,0,*55
1486191770.34,36886,9.75,72692.3,-4.67,-6.89,-6.81,0,*5E
1486191771.56,36887,9.75,72688.3,-4.67,-6.77,-6.77,0,*57
1486191772.77,36888,9.75,72686.8,-4.67,-6.69,-6.69,0,*58
1486191773.98,36889,9.75,72688.5,-4.67,-6.69,-6.69,0,*59
1486191775.2,36890,9.75,72688.3,-4.67,-6.69,-6.69,0,*51
1486191776.41,36891,9.75,72688.5,-4.69,-6.77,-6.69,0,*51
1486191777.64,36892,9.75,72690.3,-4.67,-6.89,-6.81,0,*5B
1486191778.89,36893,9.75,72690.0,-4.67,-6.93,-6.81,0,*51
1486191780.12,36894,9.75,72690.5,-4.67,-6.81,-6.81,0,*55
1486191781.32,36895,9.75,72688.5,-4.65,-6.77,-6.73,0,*52
1486191782.57,36896,9.75,72688.3,-4.67,-6.93,-6.89,0,*5C
1486191783.79,36897,9.75,72686.3,-4.67,-6.81,-6.77,0,*5F
1486191785.0,36898,9.75,72688.0,-4.69,-6.77,-6.69,0,*58
1486191786.22,36899,9.75,72690.3,-4.69,-6.77,-6.69,0,*59
1486191787.45,36900,9.75,72688.3,-4.67,-6.77,-6.81,0,*50
1486191788.67,36901,9.75,72690.8,-4.67,-6.77,-6.69,0,*57
1486191789.87,36902,9.75,72688.5,-4.69,-6.69,-6.69,0,*55
1486191791.12,36903,9.75,72688.3,-4.67,-6.63,-6.55,0,*5F
1486191792.34,36904,9.75,72684.5,-4.67,-6.51,-6.55,0,*59
1486191793.57,36905,9.75,72686.8,-4.67,-6.55,-6.55,0,*5C
1486191794.83,36906,9.75,72688.8,-4.67,-6.63,-6.63,0,*5F
1486191796.05,36907,9.75,72688.3,-4.67,-6.55,-6.55,0,*5E
1486191797.26,36908,9.75,72686.0,-4.65,-6.51,-6.51,0,*53
1486191798.52,36909,9.75,72686.3,-4.67,-6.63,-6.63,0,*50
1486191799.77,36910,9.75,72686.8,-4.67,-6.77,-6.63,0,*5D
1486191801.01,36911,9.75,72686.8,-4.69,-6.69,-6.63,0,*5D
1486191802.21,36912,9.75,72684.5,-4.65,-6.59,-6.51,0,*50
1486191803.43,36913,9.75,72686.5,-4.67,-6.69,-6.55,0,*54
1486191804.67,36914,9.75,72690.3,-4.67,-6.63,-6.55,0,*59
1486191805.91,36915,9.75,72688.5,-4.69,-6.69,-6.63,0,*59
1486191807.13,36916,9.75,72690.0,-4.67,-6.55,-6.55,0,*5E
1486191808.35,36917,9.75,72690.8,-4.67,-6.55,-6.51,0,*5B
1486191809.58,36918,9.75,72690.3,-4.67,-6.55,-6.55,0,*50
1486191810.78,36919,9.75,72684.8,-4.65,-6.59,-6.51,0,*5B
1486191812.02,36920,9.75,72690.0,-4.67,-6.63,-6.55,0,*5E
1486191813.23,36921,9.75,72688.5,-4.67,-6.69,-6.69,0,*5A
1486191814.5,36922,9.75,72690.3,-4.67,-6.63,-6.63,0,*59
1486191815.71,36923,9.75,72688.3,-4.67,-6.69,-6.69,0,*58
1486191816.95,36924,9.75,72688.3,-4.67,-6.69,-6.63,0,*55
1486191818.16,36925,9.75,72690.3,-4.67,-6.69,-6.69,0,*5E
1486191819.4,36926,9.75,72688.5,-4.67,-6.63,-6.69,0,*57
1486191820.63,36927,9.75,72692.0,-4.67,-6.51,-6.51,0,*5C
1486191821.85,36928,9.75,72688.3,-4.67,-6.55,-6.51,0,*57
1486191823.12,36929,9.75,72688.0,-4.67,-6.63,-6.63,0,*52
1486191824.33,36930,9.75,72688.0,-4.65,-6.63,-6.59,0,*51
1486191825.53,36931,9.75,72688.5,-4.65,-6.59,-6.51,0,*51
1486191826.75,36932,9.75,72688.0,-4.67,-6.55,-6.55,0,*58
1486191827.95,36933,9.75,72688.8,-4.65,-6.59,-6.51,0,*53
1486191829.22,36934,9.75,72686.5,-4.67,-6.63,-6.63,0,*5E
1486191830.46,36935,9.75,72690.5,-4.67,-6.63,-6.55,0,*5A
1486191831.73,36936,9.75,72688.0,-4.67,-6.63,-6.63,0,*5C
1486191832.94,36937,9.75,72688.8,-4.65,-6.63,-6.59,0,*56
1486191834.16,36938,9.75,72688.0,-4.65,-6.63,-6.59,0,*59
1486191835.41,36939,9.75,72688.3,-4.67,-6.55,-6.63,0,*56
1486191836.65,36940,9.75,72688.0,-4.67,-6.69,-6.63,0,*57
1486191837.87,36941,9.75,72690.5,-4.67,-6.55,-6.55,0,*5C
1486191839.14,36942,9.75,72686.0,-4.67,-6.63,-6.63,0,*5F
1486191840.4,36943,9.75,72688.0,-4.67,-6.63,-6.63,0,*5E
1486191841.65,36944,9.75,72690.5,-4.67,-6.55,-6.63,0,*5C
1486191842.85,36945,9.75,72690.3,-4.65,-6.59,-6.59,0,*5A
1486191844.09,36946,9.75,72688.8,-4.67,-6.63,-6.55,0,*5E
1486191845.36,36947,9.75,72690.0,-4.67,-6.63,-6.63,0,*5A
1486191846.57,36948,9.75,72688.8,-4.65,-6.63,-6.59,0,*5E
1486191847.79,36949,9.75,72686.3,-4.67,-6.69,-6.69,0,*54
1486191849.02,36950,9.75,72688.0,-4.67,-6.63,-6.69,0,*56
1486191850.26,36951,9.75,72690.0,-4.67,-6.63,-6.69,0,*57
1486191851.5,36952,9.75,72690.5,-4.67,-6.69,-6.63,0,*54
1486191852.71,36953,9.75,72688.0,-4.67,-6.69,-6.69,0,*5F
1486191853.95,36954,9.75,72688.5,-4.67,-6.69,-6.63,0,*52
1486191855.15,36955,9.75,72688.8,-4.65,-6.77,-6.69,0,*54
1486191856.38,36956,9.75,72688.0,-4.67,-6.63,-6.69,0,*50
1486191857.62,36957,9.75,72690.8,-4.67,-6.63,-6.69,0,*51
1486191858.87,36958,9.75,72688.3,-4.67,-6.55,-6.63,0,*51
1486191860.09,36959,9.75,72690.5,-4.67,-6.51,-6.55,0,*51
1486191861.32,36960,9.75,72688.3,-4.67,-6.55,-6.51,0,*5B
1486191862.51,36961,9.75,72688.3,-4.65,-6.47,-6.51,0,*5B
1486191863.74,36962,9.75,72688.5,-4.67,-6.55,-6.55,0,*5D
1486191864.98,36963,9.75,72690.3,-4.67,-6.69,-6.63,0,*56
1486191866.24,36964,9.75,72690.3,-4.67,-6.63,-6.63,0,*5B
1486191867.44,36965,9.75,72686.5,-4.65,-6.59,-6.59,0,*58
1486191868.71,36966,9.75,72688.0,-4.67,-6.63,-6.63,0,*59
1486191869.97,36967,9.75,72688.8,-4.67,-6.63,-6.63,0,*58
1486191871.22,36968,9.75,72688.8,-4.67,-6.55,-6.63,0,*52
1486191872.42,36969,9.75,72688.5,-4.65,-6.47,-6.51,0,*53
1486191873.62,36970,9.75,72688.3,-4.65,-6.51,-6.51,0,*5C
1486191874.83,36971,9.75,72688.3,-4.67,-6.69,-6.69,0,*5F
1486191876.07,36972,9.75,72690.3,-4.67,-6.63,-6.69,0,*56
1486191877.32,36973,9.75,72690.3,-4.67,-6.55,-6.63,0,*58
1486191878.52,36974,9.75,72688.3,-4.65,-6.51,-6.47,0,*5F
1486191879.72,36975,9.75,72690.5,-4.65,-6.51,-6.51,0,*59
1486191880.92,36976,9.75,72688.3,-4.65,-6.51,-6.47,0,*5D
1486191882.11,36977,9.75,72686.8,-4.65,-6.47,-6.47,0,*5B
1486191883.33,36978,9.75,72690.0,-4.65,-6.63,-6.59,0,*5D
1486191884.55,36979,9.75,72686.3,-4.65,-6.63,-6.59,0,*5C
1486191885.75,36980,9.75,72688.5,-4.65,-6.59,-6.59,0,*53
1486191886.94,36981,9.75,72688.0,-4.65,-6.59,-6.51,0,*5A
1486191888.15,36982,9.75,72690.0,-4.65,-6.51,-6.51,0,*51
1486191889.34,36983,9.75,72690.3,-4.65,-6.59,-6.47,0,*5F
1486191890.61,36984,9.75,72690.5,-4.67,-6.63,-6.63,0,*55
1486191891.85,36985,9.75,72690.5,-4.67,-6.63,-6.69,0,*5E
1486191893.06,36986,9.75,72688.8,-4.65,-6.63,-6.59,0,*5C
1486191894.32,36987,9.75,72690.5,-4.63,-6.63,-6.63,0,*52
1486191895.52,36988,9.75,72688.5,-4.65,-6.59,-6.51,0,*53
1486191896.76,36989,9.75,72688.5,-4.67,-6.69,-6.63,0,*52
1486191898.03,36990,9.75,72688.3,-4.67,-6.63,-6.63,0,*50
1486191899.23,36991,9.75,72690.3,-4.65,-6.59,-6.59,0,*53
1486191900.42,36992,9.75,72688.5,-4.65,-6.59,-6.59,0,*50
1486191901.65,36993,9.75,72688.5,-4.65,-6.59,-6.63,0,*58
1486191902.91,36994,9.75,72690.0,-4.67,-6.63,-6.63,0,*54
1486191904.11,36995,9.75,72688.5,-4.65,-6.51,-6.59,0,*5F
1486191905.34,36996,9.75,72688.5,-4.65,-6.59,-6.63,0,*5D
1486191906.56,36997,9.75,72686.0,-4.65,-6.59,-6.63,0,*5C
1486191907.76,36998,9.75,72690.0,-4.65,-6.59,-6.59,0,*5A
1486191908.98,36999,9.75,72688.5,-4.65,-6.73,-6.63,0,*5A
1486191910.19,37000,9.75,72692.0,-4.65,-6.63,-6.73,0,*52
1486191911.4,37001,9.75,72686.0,-4.65,-6.63,-6.73,0,*53
1486191912.6,37002,9.75,72690.3,-4.65,-6.77,-6.77,0,*51
1486191913.82,37003,9.75,72688.8,-4.65,-6.73,-6.63,0,*51
1486191915.02,37004,9.75,72688.0,-4.65,-6.59,-6.59,0,*57
1486191916.21,37005,9.75,72688.0,-4.65,-6.73,-6.73,0,*56
1486191917.42,37006,9.75,72688.0,-4.65,-6.63,-6.73,0,*54
1486191918.62,37007,9.75,72690.8,-4.65,-6.77,-6.77,0,*54
1486191919.85,37008,9.75,72688.5,-4.67,-6.77,-6.77,0,*59
1486191921.09,37009,9.75,72690.3,-4.67,-6.69,-6.63,0,*52
1486191922.33,37010,9.81,72692.8,-4.65,-6.63,-6.63,0,*52
1486191923.52,37011,9.81,72690.8,-4.65,-6.59,-6.73,0,*5B
1486191924.74,37012,9.75,72686.3,-4.65,-6.63,-6.73,0,*51
1486191925.93,37013,9.75,72690.5,-4.65,-6.73,-6.73,0,*51
1486191927.13,37014,9.75,72690.3,-4.65,-6.51,-6.51,0,*56
1486191928.35,37015,9.75,72688.8,-4.65,-6.59,-6.63,0,*5E
1486191929.58,37016,9.75,72690.5,-4.65,-6.59,-6.63,0,*5D
1486191930.78,37017,9.75,72686.8,-4.65,-6.51,-6.59,0,*5D
1486191931.97,37018,9.75,72690.0,-4.65,-6.47,-6.59,0,*55
1486191933.17,37019,9.75,72686.5,-4.65,-6.51,-6.51,0,*5B
1486191934.37,37020,9.75,72690.3,-4.65,-6.47,-6.51,0,*56
1486191935.57,37021,9.75,72690.3,-4.65,-6.51,-6.59,0,*58
1486191936.79,37022,9.75,72690.8,-4.63,-6.51,-6.51,0,*55
1486191938.01,37023,9.75,72690.0,-4.63,-6.47,-6.59,0,*5B
1486191939.23,37024,9.75,72688.5,-4.63,-6.51,-6.59,0,*5B
1486191940.43,37025,9.75,72686.8,-4.61,-6.43,-6.47,0,*54
1486191941.65,37026,9.75,72692.3,-4.63,-6.51,-6.51,0,*51
1486191942.84,37027,9.75,72692.3,-4.61,-6.47,-6.55,0,*51
1486191944.08,37028,9.75,72690.3,-4.63,-6.59,-6.63,0,*56
1486191945.31,37029,9.75,72688.3,-4.63,-6.51,-6.51,0,*5E
1486191946.53,37030,9.75,72688.3,-4.63,-6.51,-6.51,0,*56
1486191947.75,37031,9.75,72690.3,-4.63,-6.51,-6.59,0,*5F
1486191948.98,37032,9.75,72690.3,-4.63,-6.63,-6.73,0,*55
1486191950.18,37033,9.75,72690.5,-4.61,-6.55,-6.59,0,*5B
1486191951.42,37034,9.75,72688.3,-4.63,-6.59,-6.63,0,*5B
1486191952.64,37035,9.75,72690.8,-4.63,-6.59,-6.59,0,*53
1486191953.86,37036,9.75,72688.3,-4.63,-6.59,-6.73,0,*58
1486191955.05,37037,9.75,72690.5,-4.61,-6.59,-6.69,0,*50
1486191956.24,37038,9.81,72690.3,-4.61,-6.55,-6.55,0,*5C
1486191957.46,37039,9.75,72688.5,-4.63,-6.59,-6.77,0,*53
1486191958.67,37040,9.75,72690.5,-4.63,-6.73,-6.77,0,*55
1486191959.88,37041,9.75,72688.0,-4.63,-6.59,-6.69,0,*53
1486191961.08,37042,9.75,72688.3,-4.61,-6.59,-6.77,0,*5D
1486191962.31,37043,9.75,72690.8,-4.63,-6.63,-6.73,0,*53
1486191963.55,37044,9.75,72690.3,-4.63,-6.63,-6.73,0,*54
1486191964.78,37045,9.75,72690.0,-4.63,-6.63,-6.77,0,*51
1486191965.99,37046,9.75,72688.3,-4.63,-6.73,-6.73,0,*57
1486191967.21,37047,9.75,72686.0,-4.63,-6.73,-6.77,0,*52
1486191968.4,37048,9.81,72688.8,-4.61,-6.73,-6.73,0,*5B
1486191969.63,37049,9.75,72688.5,-4.63,-6.63,-6.85,0,*50
1486191970.85,37050,9.81,72690.8,-4.63,-6.73,-6.77,0,*54
1486191972.06,37051,9.75,72688.8,-4.63,-6.59,-6.73,0,*59
1486191973.26,37052,9.75,72686.5,-4.61,-6.59,-6.77,0,*5C
1486191974.47,37053,9.75,72690.5,-4.61,-6.63,-6.73,0,*50
1486191975.69,37054,9.75,72690.3,-4.63,-6.59,-6.73,0,*5C
1486191976.88,37055,9.75,72690.8,-4.61,-6.55,-6.69,0,*58
1486191978.12,37056,9.75,72688.3,-4.63,-6.51,-6.63,0,*57
1486191979.34,37057,9.75,72688.5,-4.63,-6.51,-6.73,0,*57
1486191980.54,37058,9.81,72692.3,-4.61,-6.55,-6.59,0,*56
1486191981.73,37059,9.81,72690.8,-4.61,-6.59,-6.73,0,*53
1486191982.92,37060,9.75,72690.5,-4.61,-6.69,-6.69,0,*51
1486191984.11,37061,9.75,72688.3,-4.61,-6.55,-6.73,0,*54
1486191985.3,37062,9.81,72690.8,-4.61,-6.55,-6.69,0,*5C
1486191986.5,37063,9.81,72690.8,-4.61,-6.59,-6.73,0,*5A
1486191987.71,37064,9.75,72688.3,-4.61,-6.63,-6.77,0,*50
1486191988.9,37065,9.75,72688.8,-4.61,-6.69,-6.85,0,*56
1486191990.13,37066,9.75,72688.8,-4.63,-6.63,-6.85,0,*5D
1486191991.35,37067,9.75,72684.3,-4.63,-6.59,-6.85,0,*55
1486191992.58,37068,9.75,72690.5,-4.63,-6.63,-6.73,0,*5A
1486191993.78,37069,9.75,72688.0,-4.61,-6.55,-6.73,0,*5C
1486191994.97,37070,9.75,72690.8,-4.61,-6.47,-6.69,0,*5C
1486191996.16,37071,9.75,72690.0,-4.61,-6.59,-6.77,0,*5D
1486191997.35,37072,9.81,72688.8,-4.61,-6.47,-6.69,0,*5E
1486191998.55,37073,9.81,72690.3,-4.61,-6.59,-6.73,0,*5B
1486191999.76,37074,9.75,72688.0,-4.61,-6.63,-6.85,0,*5C
1486192000.96,37075,9.75,72690.0,-4.61,-6.59,-6.81,0,*50
1486192002.16,37076,9.75,72686.3,-4.61,-6.59,-6.81,0,*53
1486192003.35,37077,9.75,72690.0,-4.61,-6.69,-6.85,0,*55
1486192004.55,37078,9.81,72692.3,-4.61,-6.69,-6.81,0,*5E
1486192005.74,37079,9.81,72692.8,-4.61,-6.59,-6.73,0,*51
1486192006.93,37080,9.75,72688.5,-4.61,-6.69,-6.73,0,*54
1486192008.15,37081,9.75,72690.5,-4.61,-6.73,-6.97,0,*54
1486192009.36,37082,9.75,72690.3,-4.61,-6.73,-6.93,0,*53
1486192010.56,37083,9.81,72692.3,-4.61,-6.73,-6.85,0,*55
1486192011.76,37084,9.75,72690.3,-4.61,-6.59,-6.81,0,*5E
1486192012.95,37085,9.75,72692.0,-4.61,-6.59,-6.73,0,*52
1486192014.15,37086,9.81,72692.0,-4.61,-6.59,-6.73,0,*51
1486192015.37,37087,9.75,72690.5,-4.59,-6.59,-6.81,0,*56
1486192016.59,37088,9.81,72692.0,-4.59,-6.59,-6.85,0,*5D
1486192017.8,37089,9.75,72690.8,-4.59,-6.59,-6.85,0,*5C
1486192019.02,37090,9.75,72690.3,-4.59,-6.55,-6.81,0,*5C
1486192020.22,37091,9.75,72688.3,-4.57,-6.51,-6.77,0,*5E
1486192021.46,37092,9.81,72692.0,-4.59,-6.59,-6.93,0,*51
1486192022.7,37093,9.81,72692.8,-4.59,-6.55,-6.93,0,*5C
1486192023.94,37094,9.81,72692.3,-4.59,-6.73,-6.93,0,*5F
1486192025.15,37095,9.81,72694.0,-4.57,-6.69,-6.93,0,*5B
1486192026.39,37096,9.75,72688.5,-4.59,-6.81,-6.97,0,*54
1486192027.61,37097,9.81,72692.8,-4.57,-6.81,-6.93,0,*5F
1486192028.82,37098,9.81,72690.5,-4.57,-6.69,-6.93,0,*56
1486192030.03,37099,9.81,72692.3,-4.57,-6.63,-6.89,0,*56
1486192031.27,37100,9.81,72690.8,-4.59,-6.73,-6.93,0,*53
1486192032.5,37101,9.75,72688.5,-4.57,-6.63,-6.93,0,*5D
1486192033.72,37102,9.75,72690.0,-4.57,-6.81,-6.97,0,*56
1486192034.96,37103,9.75,72690.8,-4.59,-6.69,-6.97,0,*5F
1486192036.19,37104,9.75,72690.0,-4.59,-6.73,-6.97,0,*53
1486192037.41,37105,9.75,72688.0,-4.57,-6.69,-6.93,0,*53
1486192038.64,37106,9.75,72688.0,-4.57,-6.63,-6.93,0,*5A
1486192039.85,37107,9.75,72690.0,-4.57,-6.69,-6.93,0,*51
1486192041.09,37108,9.81,72688.5,-4.59,-6.69,-6.93,0,*50
1486192042.32,37109,9.81,72688.8,-4.57,-6.63,-6.93,0,*55
1486192043.52,37110,9.81,72694.8,-4.57,-6.85,-7.11,0,*5E
1486192044.72,37111,9.81,72688.8,-4.57,-6.69,-7.05,0,*58
1486192045.94,37112,9.75,72688.3,-4.57,-6.77,-7.01,0,*50
1486192047.16,37113,9.81,72690.8,-4.57,-6.81,-7.01,0,*58
1486192048.38,37114,9.81,72690.3,-4.57,-6.77,-7.01,0,*56
1486192049.59,37115,9.75,72686.8,-4.57,-6.81,-7.05,0,*5A
1486192050.8,37116,9.75,72690.5,-4.57,-6.69,-7.01,0,*5B
1486192052.01,37117,9.75,72688.3,-4.57,-6.81,-7.05,0,*58
1486192053.25,37118,9.81,72688.8,-4.59,-6.81,-7.05,0,*59
1486192054.47,37119,9.81,72688.5,-4.57,-6.81,-7.01,0,*52
1486192055.68,37120,9.75,72690.5,-4.57,-6.69,-7.01,0,*5E
1486192056.9,37121,9.75,72690.8,-4.57,-6.81,-7.01,0,*59
1486192058.11,37122,9.81,72692.5,-4.57,-6.81,-7.05,0,*5E
1486192059.3,37123,9.81,72690.3,-4.57,-6.89,-7.11,0,*52
1486192060.5,37124,9.75,72688.8,-4.57,-6.89,-7.19,0,*5D
1486192061.69,37125,9.75,72690.8,-4.57,-6.77,-7.19,0,*5D
1486192062.89,37126,9.81,72694.3,-4.57,-6.81,-7.11,0,*5F
1486192064.09,37127,9.81,72692.0,-4.57,-6.81,-7.11,0,*5E
1486192065.29,37128,9.81,72692.0,-4.57,-6.81,-7.11,0,*51
1486192066.5,37129,9.75,72688.3,-4.57,-6.77,-7.05,0,*5C
1486192067.71,37130,9.75,72688.3,-4.57,-6.69,-7.01,0,*5F
1486192068.95,37131,9.75,72686.0,-4.57,-6.63,-7.01,0,*54
1486192070.16,37132,9.81,72688.8,-4.57,-6.69,-7.01,0,*5D
1486192071.37,37133,9.75,72688.3,-4.57,-6.81,-7.05,0,*5E
1486192072.56,37134,9.81,72690.3,-4.57,-6.89,-7.19,0,*5C
1486192073.8,37135,9.75,72690.5,-4.51,-6.77,-7.05,0,*57
1486192075.02,37136,9.81,72692.0,-4.55,-6.89,-7.19,0,*5C
1486192076.26,37137,9.81,72692.8,-4.51,-6.89,-7.27,0,*54
1486192077.51,37138,9.81,72692.0,-4.55,-6.93,-7.23,0,*50
1486192078.75,37139,9.75,72690.0,-4.55,-6.93,-7.23,0,*51
1486192079.97,37140,9.81,72690.8,-4.55,-6.89,-7.23,0,*54
1486192081.19,37141,9.81,72690.5,-4.55,-6.89,-7.23,0,*55
1486192082.4,37142,9.81,72690.3,-4.55,-6.89,-7.15,0,*53
1486192083.65,37143,9.81,72690.8,-4.55,-6.93,-7.19,0,*55
1486192084.89,37144,9.81,72690.5,-4.55,-6.93,-7.23,0,*5B
1486192086.16,37145,9.81,72690.0,-4.55,-6.93,-7.31,0,*59
1486192087.43,37146,9.81,72688.5,-4.55,-6.93,-7.31,0,*5A
1486192088.67,37147,9.81,72694.0,-4.51,-6.89,-7.27,0,*53
1486192089.94,37148,9.81,72690.0,-4.55,-6.93,-7.35,0,*50
1486192091.2,37149,9.75,72690.8,-4.55,-7.01,-7.35,0,*5B
1486192092.47,37150,9.81,72690.8,-4.51,-6.97,-7.31,0,*5D
1486192093.74,37151,9.75,72690.3,-4.55,-7.01,-7.43,0,*53
1486192095.02,37152,9.81,72688.5,-4.51,-6.97,-7.43,0,*5A
1486192096.28,37153,9.81,72688.8,-4.51,-7.01,-7.39,0,*58
1486192097.55,37154,9.81,72694.3,-4.55,-7.01,-7.43,0,*56
1486192098.79,37155,9.81,72692.3,-4.51,-6.89,-7.27,0,*50
1486192100.04,37156,9.81,72692.0,-4.51,-6.89,-7.31,0,*54
1486192101.3,37157,9.81,72692.8,-4.55,-6.93,-7.31,0,*5A
1486192102.57,37158,9.81,72692.3,-4.55,-6.93,-7.35,0,*51
1486192103.85,37159,9.75,72688.3,-4.51,-6.97,-7.43,0,*51
1486192105.12,37160,9.81,72690.0,-4.51,-7.01,-7.43,0,*55
1486192106.39,37161,9.81,72688.8,-4.51,-6.97,-7.31,0,*5F
1486192107.63,37162,9.81,72690.8,-4.51,-7.01,-7.53,0,*56
1486192108.89,37163,9.81,72690.8,-4.51,-7.01,-7.39,0,*5B
1486192110.13,37164,9.75,72688.3,-4.55,-7.01,-7.49,0,*5F
1486192111.37,37165,9.81,72688.5,-4.51,-7.05,-7.53,0,*55
1486192112.64,37166,9.81,72690.8,-4.51,-7.05,-7.65,0,*53